TimePDT,TemperatureF,Dew PointF,Humidity,Sea Level PressureIn,VisibilityMPH,Wind Direction,Wind SpeedMPH,Gust SpeedMPH,PrecipitationIn,Events,Conditions,WindDirDegrees,DateUTC
12:52 AM,86.0,53.1,32,29.69,10.0,South,8.1,-,N/A,,Clear,170,2013-07-29 07:52:00
1:52 AM,84.0,53.1,34,29.70,10.0,SSW,8.1,-,N/A,,Clear,200,2013-07-29 08:52:00
2:52 AM,82.9,51.1,33,29.71,10.0,ESE,5.8,-,N/A,,Clear,120,2013-07-29 09:52:00
3:52 AM,82.9,52.0,34,29.72,10.0,Calm,Calm,-,N/A,,Clear,0,2013-07-29 10:52:00
4:52 AM,80.1,48.9,34,29.73,10.0,East,4.6,-,N/A,,Clear,100,2013-07-29 11:52:00
5:52 AM,75.9,51.1,42,29.75,10.0,SE,3.5,-,N/A,,Clear,130,2013-07-29 12:52:00
6:52 AM,80.1,51.1,36,29.78,10.0,Calm,Calm,-,N/A,,Clear,0,2013-07-29 13:52:00
7:52 AM,84.9,51.1,31,29.80,10.0,Calm,Calm,-,N/A,,Clear,0,2013-07-29 14:52:00
8:52 AM,91.0,43.0,19,29.81,10.0,South,9.2,-,N/A,,Clear,170,2013-07-29 15:52:00
9:52 AM,95.0,46.0,19,29.83,10.0,South,16.1,-,N/A,,Clear,180,2013-07-29 16:52:00
10:52 AM,98.1,46.9,18,29.83,10.0,SSE,11.5,-,N/A,,Clear,150,2013-07-29 17:52:00
11:52 AM,102.0,50.0,17,29.83,10.0,SSE,10.4,-,N/A,,Clear,160,2013-07-29 18:52:00
12:52 PM,104.0,51.1,17,29.82,10.0,SSE,15.0,21.9,N/A,,Clear,160,2013-07-29 19:52:00
1:52 PM,105.1,52.0,17,29.81,10.0,South,13.8,21.9,N/A,,Clear,170,2013-07-29 20:52:00
2:52 PM,106.0,54.0,18,29.79,10.0,South,10.4,18.4,N/A,,Clear,180,2013-07-29 21:52:00
3:52 PM,107.1,54.0,17,29.78,10.0,SSE,11.5,-,N/A,,Clear,150,2013-07-29 22:52:00
4:52 PM,107.1,53.1,17,29.77,10.0,SSE,11.5,-,N/A,,Clear,150,2013-07-29 23:52:00
5:52 PM,106.0,55.9,19,29.75,10.0,South,9.2,-,N/A,,Clear,170,2013-07-30 00:52:00
6:52 PM,104.0,57.0,21,29.75,10.0,South,12.7,-,N/A,,Clear,180,2013-07-30 01:52:00
7:52 PM,99.0,59.0,26,29.76,10.0,South,11.5,-,N/A,,Clear,180,2013-07-30 02:52:00
8:52 PM,98.1,61.0,29,29.79,10.0,South,17.3,-,N/A,,Clear,190,2013-07-30 03:52:00
9:52 PM,93.9,57.9,30,29.83,10.0,South,15.0,-,N/A,,Clear,170,2013-07-30 04:52:00
10:52 PM,91.0,57.9,33,29.84,10.0,South,12.7,-,N/A,,Clear,180,2013-07-30 05:52:00
11:52 PM,90.0,57.0,33,29.86,10.0,SSW,9.2,-,N/A,,Clear,200,2013-07-30 06:52:00